This is the latest recevied weather packets stored in our database for station/object DM4XI-13. If no packets are shown the sender has not sent any weather packets the latest 1 day(s).
| Time | Temp. | Humidity | Pressure | Rain* | Wind** | Luminosity | Snow |
|---|---|---|---|---|---|---|---|
| 1778094096 | 12.22° C | 91% | 1005.1 hPa | 0.76 mm | 0.45 m/s, 175° | 0 W/m² | - |
| 1778093852 | 12.22° C | 91% | 1005.1 hPa | 2.03 mm | 0.89 m/s, 198° | 0 W/m² | - |
| 1778093730 | 12.22° C | 91% | 1005 hPa | 1.78 mm | 1.34 m/s, 186° | 0 W/m² | - |
| 1778093608 | 12.22° C | 90% | 1004.8 hPa | 1.78 mm | 0.89 m/s, 177° | 0 W/m² | - |
| 1778093303 | 12.22° C | 88% | 1004.5 hPa | 1.27 mm | 0.89 m/s, 188° | 0 W/m² | - |
| 1778093242 | 12.22° C | 88% | 1004.6 hPa | 1.27 mm | 0.45 m/s, 241° | 0 W/m² | - |
| 1778092815 | 13.33° C | 85% | 1004.3 hPa | 0.76 mm | 0.89 m/s, 312° | 0 W/m² | - |
| 1778092754 | 13.33° C | 84% | 1004.2 hPa | 0.76 mm | 0.89 m/s, 257° | 0 W/m² | - |
| 1778092571 | 13.33° C | 82% | 1004.3 hPa | 0 mm | 0.45 m/s, 225° | 0 W/m² | - |
| 1778092266 | 13.89° C | 79% | 1004 hPa | 0 mm | 0 m/s | 0 W/m² | - |
| 1778091960 | 13.89° C | 78% | 1003.9 hPa | 0 mm | 0.45 m/s, 254° | 0 W/m² | - |
| 1778091717 | 13.89° C | 78% | 1003.6 hPa | 0 mm | 0.89 m/s, 288° | 0 W/m² | - |
| 1778091472 | 13.89° C | 78% | 1003.5 hPa | 0 mm | 0.89 m/s, 266° | 1 W/m² | - |
| 1778091411 | 13.89° C | 78% | 1003.6 hPa | 0 mm | 0.89 m/s, 305° | 1 W/m² | - |
| 1778090801 | 13.89° C | 77% | 1003.2 hPa | 0 mm | 1.79 m/s, 301° | 3 W/m² | - |
| 1778089581 | 13.89° C | 78% | 1003.4 hPa | 0.51 mm | 1.34 m/s, 291° | 15 W/m² | - |
| 1778089398 | 14.44° C | 78% | 1003.4 hPa | 0.51 mm | 1.79 m/s, 302° | 18 W/m² | - |
| 1778089337 | 14.44° C | 78% | 1003.3 hPa | 0.51 mm | 1.34 m/s, 294° | 19 W/m² | - |
| 1778089215 | 14.44° C | 77% | 1003.2 hPa | 0.51 mm | 1.79 m/s, 314° | 23 W/m² | - |
| 1778089154 | 14.44° C | 77% | 1003.3 hPa | 0.51 mm | 2.68 m/s, 336° | 26 W/m² | - |
| 1778089032 | 14.44° C | 78% | 1003.1 hPa | 0.51 mm | 1.79 m/s, 316° | 31 W/m² | - |
| 1778088971 | 14.44° C | 78% | 1003 hPa | 0.51 mm | 1.79 m/s, 310° | 34 W/m² | - |
| 1778088851 | 14.44° C | 80% | 1003 hPa | 0.51 mm | 1.34 m/s, 334° | 33 W/m² | - |
| 1778088605 | 15° C | 78% | 1003.1 hPa | 0.51 mm | 1.79 m/s, 304° | 24 W/m² | - |
| 1778088483 | 15° C | 77% | 1003 hPa | 0.51 mm | 1.34 m/s, 299° | 19 W/m² | - |
* Rain latest hour (hover to see other rain measurements)
** Current wind speed in m/s (hover to see current wind gust speed)